Regional Weather Roundup
Issued by NWS

Home | Current Version | Previous Version | Text Only | Print | Product List | Glossary Off
Versions: 1 2 3 4 5 6 7 8 9 10 11 12 13 14 15 16 17 18 19 20 21 22 23 24 25 26 27 28 29 30 31 32 33 34 35 36 37 38 39 40 41 42 43 44 45 46 47 48 49 50

000
ASUS43 KMPX 300201
RWRMN
WEATHER ROUNDUP FOR MINNESOTA
NATIONAL WEATHER SERVICE TWIN CITIES/CHANHASSEN MN
900 PM CDT MON SEP 29 2014


NOTE: "FAIR" INDICATES FEW OR NO CLOUDS BELOW 12,000 FEET WITH NO
SIGNIFICANT WEATHER AND/OR OBSTRUCTIONS TO VISIBILITY. N/A MEANS
CURRENT SKY AND/OR WEATHER CONDITIONS ARE NOT AVAILABLE.

MNZ060>063-068>070-300300-
   Twin Cities Metro

CITY           SKY/WX    TMP DP  RH WIND       PRES   REMARKS
TWIN CITIES    CLEAR     50  43  77 NE12      30.11S
ST PAUL        CLEAR     50  44  80 NE10      30.12S
CRYSTAL        CLEAR     50  42  74 NE9       30.11S
BLAINE         CLEAR     48  45  87 NE9       30.12S
LAKEVILLE      CLEAR     48  45  87 NE6       30.10S
EDEN PRAIRIE   CLEAR     50  45  83 NE8       30.09S
SOUTH ST PAUL  CLEAR     51  44  76 NE5       30.11S
LAKE ELMO      FAIR      48  43  81 NE8       30.12F
$$
MNZ001>005-007-008-013>017-022>024-027-028-300300-
   Northwest Minnesota

CITY           SKY/WX    TMP DP  RH WIND       PRES   REMARKS
BEMIDJI        CLEAR     47  43  87 SE7       30.13S
HALLOCK        PTCLDY    48  45  87 NE7       30.10F
ROSEAU         CLEAR     48  45  87 E9        30.13F
WARROAD        MOCLDY    48  45  87 SE14      30.15S
THIEF RVR FALL CLEAR     48  43  81 E8        30.11S
CROOKSTON      CLEAR     52  46  82 E10       30.10S
FOSSTON        CLEAR     45  41  87 CALM      30.12S
DETROIT LAKES  CLEAR     50  45  81 SE9       30.11F
PARK RAPIDS    CLEAR     47  42  83 E6        30.13S
MAHNOMEN       FAIR      49  43  80 E6        30.10F
$$
MNZ006-009>011-018-025>026-300300-
   North Central Minnesota

CITY           SKY/WX    TMP DP  RH WIND       PRES   REMARKS
BAUDETTE       CLEAR     42  39  89 E12       30.17S
FLAG ISLAND    CLOUDY    48  45  87 E9        30.14F
INTL FALLS     CLOUDY    44  39  82 SE7       30.19F
WASKISH        CLEAR     45  41  87 CALM      30.15F
BIG FORK       PTCLDY    45  41  87 E5        30.18S
LONGVILLE      CLOUDY    48  43  81 SE3       30.14F
GRAND RAPIDS   CLOUDY    48  39  71 E3        30.16S
CRANE LAKE     CLOUDY    43  39  87 CALM      30.23S
ORR            CLOUDY    43  37  81 E3        30.17S
COOK           CLOUDY    45  39  81 CALM      30.20S
WALKER         CLOUDY    49  42  78 SE7       30.13F
$$
MNZ012-019>021-037-300300-
   Northeast Minnesota

CITY           SKY/WX    TMP DP  RH WIND       PRES   REMARKS
DULUTH         CLOUDY    44  39  82 E9        30.18S
ELY            CLOUDY    45  37  76 CALM      30.20R
HIBBING        CLOUDY    48  41  76 SE5       30.18R
EVELETH        CLOUDY    45  39  81 CALM      30.19S
DULUTH HARBOR  CLOUDY    48  43  81 E13G18    30.21S
TWO HARBORS    CLOUDY    43  37  81 NE3       30.19R
SILVER BAY     PTCLDY    41  41 100 CALM      30.19S
GRAND MARAIS     N/A     45  38  76 N3        30.23S
G MARAIS ARPRT CLOUDY    37  34  87 N5        30.21S
$$
MNZ029>031-032-039>041-046>048-054>057-064-300300-
   West Central Minnesota

CITY           SKY/WX    TMP DP  RH WIND       PRES   REMARKS
FERGUS FALLS   CLEAR     50  43  76 SE7       30.09F
WHEATON        PTCLDY    48  45  87 E8        30.09S
MORRIS         CLEAR     52  46  82 E6        30.08R
ALEXANDRIA     PTCLDY    50  44  80 E10       30.11F
ELBOW LAKE     CLOUDY    51  46  82 E12       30.08F
WADENA         CLOUDY    48  43  81 E8        30.12S
GLENWOOD       PTCLDY    48  45  87 NE9       30.10S
APPLETON       MOCLDY    54  46  76 E7        30.08R
BENSON         CLEAR     52  46  82 SE5       30.09S
ORTONVILLE     CLEAR     54  46  76 E8        30.06F
MADISON        CLEAR     54  48  82 E8        30.07S
WILLMAR        FAIR      52  45  76 E8        30.10S
$$
MNZ033>034-036-042>043-049>051-058-059-300300-
   Central Minnesota

CITY           SKY/WX    TMP DP  RH WIND       PRES   REMARKS
ST CLOUD       CLEAR     48  42  80 NE6       30.13S
SAUK CENTRE    FAIR      47  43  85 E9        30.11F
PAYNESVILLE    PTCLDY    47  43  85 N9        30.11S
AITKIN         PTCLDY    45  39  81 CALM      30.15S
PINE RIVER     CLOUDY    48  43  81 E7        30.17S
BRAINERD       PTCLDY    45  41  86 VRB3      30.16R
STAPLES        CLOUDY    48  43  81 E3        30.13S
LONG PRAIRIE   FAIR      45  43  93 NE8       30.13S
LITTLE FALLS   MOCLDY    45  39  81 E7        30.14S
LITCHFIELD     FAIR      52  46  82 NE10      30.10F
BUFFALO        CLEAR     49  42  78 NE9       30.13S
MAPLE LAKE     PTCLDY    48  45  87 NE7       30.13S
$$
MNZ037-044-045-052-053-300300-
   East Central Minnesota

CITY           SKY/WX    TMP DP  RH WIND       PRES   REMARKS
PRINCETON      PTCLDY    46  43  87 NE3       30.15R
MORA           CLEAR     41  36  81 NE5       30.17S
CAMBRIDGE      PTCLDY    48  39  71 NE8       30.13R
RUSH CITY      CLOUDY    45  40  82 NE8       30.15S
MOOSE LAKE     CLOUDY    43  37  81 NE8       30.16F
HINCKLEY       CLOUDY    45  39  81 NE8       30.17S
CLOQUET        CLOUDY    45  39  81 E10       30.17F
MCGREGOR       CLOUDY    43  41  93 E10       30.17S
$$
MNZ071>073-080-081-089-090-097-098-300300-
   Southwest Minnesota

CITY           SKY/WX    TMP DP  RH WIND       PRES   REMARKS
MONTEVIDEO     CLEAR     52  46  82 SE6       30.09S
GRANITE FALLS  CLEAR     52  47  81 E3        30.09S
CANBY          CLEAR     53  48  84 E8        30.07S
MARSHALL       CLEAR     54  45  71 E12       30.06S
REDWOOD FALLS  CLEAR     53  47  79 E8        30.08R
OLIVIA         CLEAR     52  46  82 E5        30.07S
PIPESTONE      CLEAR     55  48  76 E10G17    30.03S
WINDOM         CLEAR     54  48  82 NE12      30.06S
WORTHINGTON    PTCLDY    55  48  76 E12       30.06R
JACKSON        CLEAR     55  48  76 NE10      30.06S
TRACY          CLEAR     53  49  85 E7        30.07S
SLAYTON        CLEAR     54  49  86 CALM      30.06S
$$
MNZ065>067-074>077-082>085-091>093-300300-
   South Central Minnesota

CITY           SKY/WX    TMP DP  RH WIND       PRES   REMARKS
MANKATO        CLEAR     54  45  71 E10       30.08R
NEW ULM        CLEAR     52  48  87 E7        30.08S
ST JAMES       CLEAR     54  48  82 NE5       30.08S
FAIRMONT       CLEAR     55  46  71 NE9       30.06R
GLENCOE        CLEAR     50  44  79 NE3       30.09S
FARIBAULT      CLEAR     52  45  76 CALM      30.09S
OWATONNA       CLEAR     52  46  82 NE7       30.08S
WASECA         CLEAR     50  43  76 NE7       30.09S
ALBERT LEA     CLEAR     54  48  82 NE6       30.07R
$$
MNZ078>079-086>088-094>096-300300-
   Southeast Minnesota

CITY           SKY/WX    TMP DP  RH WIND       PRES   REMARKS
ROCHESTER      CLEAR     51  46  83 NE9       30.09R
RED WING       CLEAR     52  45  76 NE7       30.09S
STANTON        CLEAR     49  45  84 NE6       30.09R
DODGE CENTER   PTCLDY    54  48  82 NE8       30.08S
WINONA         CLEAR     54  52  94 CALM      30.09R
AUSTIN         CLEAR     52  48  87 NE5       30.06F
PRESTON        CLEAR     49  47  92 NE5       30.07F
$$
ABBREVIATIONS USED IN REMARKS
   TC - TEMPERATURES IN CELSIUS
  WCI - WIND CHILL INDEX
   HX - HEAT INDEX
  VSB - VISIBILITY
$$



USA.gov is the U.S. government's official web portal to all federal, state and local government web resources and services.